Location: Erlenbrunn
(49.1717°N, 7.6142°E)
Time: 06:30:16
(UTC+00:00)

CZ-2D R/B - Pass Details

Date: 25 November 2020
Orbit: 520 x 538 km, 97.4° (Epoch: 27 January)

Event Time Altitude Azimuth Distance (km) Brightness Sun altitude
Rises 17:19:04 0° 153° (SSE) 2,643 6.7 -16.1°
Reaches altitude 10° 17:21:11 10° 148° (SSE) 1,762 5.7 -16.4°
Maximum altitude 17:24:53 52° 72° (ENE) 666 3.3 -17.0°
Drops below altitude 10° 17:28:38 10° 356° (N) 1,787 5.8 -17.6°
Sets 17:30:47 0° 352° (N) 2,685 6.8 -17.9°
